FDB2PJ OMDB-OOMS

Flight info

Callsign FDB2PJ
Flight time 0h 48m
Altitude 27000
Route ANVIX L223 TARDI DCT MUSUK T511 MCT
Aircraft B738/M-SDE2E3FGHIRWXY/LB1

Departure

Time 2026-04-23 12:40
Airport Dubai International Airport (OMDB)

Arrival

Time 2026-04-23 13:29
Airport Muscat International Airport (OOMS)
Time Latitude Longitude Altitude Speed Heading
2026-04-23 12:16 25.26622 55.35494 27 ft 0 kts 31°
2026-04-23 12:31 25.26612 55.35488 21 ft 2 kts 31°
2026-04-23 12:31 25.26598 55.35478 21 ft 2 kts 31°
2026-04-23 12:31 25.26584 55.35469 22 ft 2 kts 31°
2026-04-23 12:31 25.26570 55.35460 23 ft 2 kts 38°
2026-04-23 12:32 25.26563 55.35450 23 ft 2 kts 86°
2026-04-23 12:32 25.26563 55.35435 25 ft 2 kts 120°
2026-04-23 12:32 25.26564 55.35432 25 ft 0 kts 123°
2026-04-23 12:34 25.26564 55.35433 25 ft 1 kts 123°
2026-04-23 12:34 25.26526 55.35499 22 ft 20 kts 122°
2026-04-23 12:34 25.26431 55.35668 23 ft 27 kts 122°
2026-04-23 12:35 25.26334 55.35840 21 ft 25 kts 122°
2026-04-23 12:35 25.26244 55.36001 21 ft 24 kts 122°
2026-04-23 12:35 25.26159 55.36151 21 ft 23 kts 122°
2026-04-23 12:35 25.26079 55.36295 22 ft 22 kts 122°
2026-04-23 12:36 25.25999 55.36437 24 ft 21 kts 122°
2026-04-23 12:36 25.25927 55.36566 23 ft 12 kts 122°
2026-04-23 12:36 25.25864 55.36591 22 ft 10 kts 197°
2026-04-23 12:36 25.25802 55.36616 23 ft 12 kts 127°
2026-04-23 12:37 25.25729 55.36744 22 ft 27 kts 122°
2026-04-23 12:37 25.25621 55.36937 23 ft 30 kts 122°
2026-04-23 12:37 25.25496 55.37158 22 ft 38 kts 122°
2026-04-23 12:37 25.25355 55.37410 23 ft 38 kts 122°
2026-04-23 12:38 25.25208 55.37672 23 ft 41 kts 122°
2026-04-23 12:38 25.25064 55.37927 22 ft 36 kts 122°
2026-04-23 12:38 25.24973 55.38090 23 ft 5 kts 124°
2026-04-23 12:38 25.24935 55.38118 24 ft 8 kts 174°
2026-04-23 12:39 25.24885 55.38098 25 ft 8 kts 210°
2026-04-23 12:39 25.24836 55.38064 29 ft 11 kts 211°
2026-04-23 12:39 25.24807 55.38030 29 ft 4 kts 273°
2026-04-23 12:39 25.24888 55.37880 29 ft 54 kts 301°
2026-04-23 12:40 25.25204 55.37310 31 ft 119 kts 301°
2026-04-23 12:40 25.25738 55.36360 31 ft 171 kts 296°
2026-04-23 12:40 25.26334 55.35175 578 ft 177 kts 301°
2026-04-23 12:40 25.26930 55.33947 1183 ft 187 kts 303°
2026-04-23 12:41 25.27682 55.32632 1500 ft 214 kts 304°
2026-04-23 12:41 25.28530 55.31191 1894 ft 234 kts 306°
2026-04-23 12:41 25.29189 55.29555 2722 ft 234 kts 275°
2026-04-23 12:41 25.28913 55.27837 3678 ft 227 kts 249°
2026-04-23 12:42 25.28257 55.26227 4315 ft 232 kts 245°
2026-04-23 12:42 25.27564 55.24643 5131 ft 229 kts 243°
2026-04-23 12:42 25.26532 55.23258 5467 ft 248 kts 212°
2026-04-23 12:42 25.24811 55.22766 5809 ft 268 kts 178°
2026-04-23 12:43 25.22991 55.23306 6422 ft 277 kts 156°
2026-04-23 12:43 25.21349 55.24456 7099 ft 281 kts 146°
2026-04-23 12:43 25.19794 55.25777 7809 ft 284 kts 145°
2026-04-23 12:43 25.18229 55.27123 8507 ft 286 kts 146°
2026-04-23 12:44 25.16635 55.28455 9214 ft 288 kts 146°
2026-04-23 12:44 25.15015 55.29776 9897 ft 291 kts 147°
2026-04-23 12:44 25.13372 55.31100 10542 ft 294 kts 147°
2026-04-23 12:44 25.11720 55.32435 11213 ft 297 kts 144°
2026-04-23 12:45 25.10358 55.34106 11818 ft 307 kts 124°
2026-04-23 12:45 25.09402 55.36306 12508 ft 313 kts 117°
2026-04-23 12:45 25.08527 55.38522 13168 ft 317 kts 117°
2026-04-23 12:45 25.07628 55.40763 13828 ft 321 kts 117°
2026-04-23 12:46 25.06717 55.43051 14272 ft 334 kts 116°
2026-04-23 12:46 25.05780 55.45491 14405 ft 356 kts 116°
2026-04-23 12:46 25.04815 55.48026 14714 ft 370 kts 116°
2026-04-23 12:46 25.04134 55.49809 15042 ft 375 kts 115°
2026-04-23 12:47 25.02779 55.53338 15846 ft 380 kts 115°
2026-04-23 12:47 25.01683 55.56042 16454 ft 383 kts 120°
2026-04-23 12:47 25.00358 55.58602 17063 ft 386 kts 124°
2026-04-23 12:47 24.98947 55.61135 17648 ft 390 kts 124°
2026-04-23 12:48 24.97516 55.63698 18201 ft 395 kts 124°
2026-04-23 12:48 24.96123 55.66240 18742 ft 398 kts 123°
2026-04-23 12:48 24.94671 55.68920 19313 ft 400 kts 123°
2026-04-23 12:48 24.93190 55.71480 19832 ft 402 kts 128°
2026-04-23 12:49 24.91548 55.73984 20344 ft 405 kts 130°
2026-04-23 12:49 24.89848 55.76475 20858 ft 408 kts 130°
2026-04-23 12:49 24.88136 55.78990 21350 ft 412 kts 130°
2026-04-23 12:49 24.86428 55.81539 21909 ft 414 kts 129°
2026-04-23 12:50 24.85281 55.83266 22362 ft 413 kts 129°
2026-04-23 12:50 24.83592 55.85812 23027 ft 411 kts 130°
2026-04-23 12:50 24.81904 55.88323 23593 ft 411 kts 130°
2026-04-23 12:50 24.80181 55.90870 24041 ft 413 kts 130°
2026-04-23 12:51 24.77861 55.94181 24690 ft 412 kts 135°
2026-04-23 12:51 24.76515 55.95716 24774 ft 416 kts 140°
2026-04-23 12:51 24.73633 55.98605 24801 ft 430 kts 142°
2026-04-23 12:51 24.72187 56.00037 24796 ft 437 kts 141°
2026-04-23 12:52 24.69854 56.02395 24806 ft 447 kts 141°
2026-04-23 12:52 24.67645 56.04665 24811 ft 454 kts 140°
2026-04-23 12:52 24.65258 56.07121 24795 ft 452 kts 140°
2026-04-23 12:52 24.62961 56.09477 24799 ft 451 kts 140°
2026-04-23 12:53 24.60666 56.11825 24790 ft 451 kts 140°
2026-04-23 12:53 24.58376 56.14175 24797 ft 450 kts 140°
2026-04-23 12:53 24.56213 56.16663 24790 ft 452 kts 131°
2026-04-23 12:53 24.54284 56.19380 24802 ft 451 kts 130°
2026-04-23 12:54 24.52395 56.22131 24797 ft 451 kts 129°
2026-04-23 12:54 24.50517 56.24889 24803 ft 450 kts 129°
2026-04-23 12:54 24.48642 56.27634 24799 ft 449 kts 129°
2026-04-23 12:54 24.46762 56.30372 24784 ft 449 kts 129°
2026-04-23 12:55 24.44877 56.33097 24790 ft 448 kts 130°
2026-04-23 12:55 24.42985 56.35819 24795 ft 449 kts 130°
2026-04-23 12:55 24.41082 56.38548 24791 ft 451 kts 130°
2026-04-23 12:55 24.39174 56.41282 24790 ft 452 kts 130°
2026-04-23 12:56 24.37259 56.44022 24789 ft 453 kts 130°
2026-04-23 12:56 24.35388 56.46700 24740 ft 443 kts 130°
2026-04-23 12:56 24.33501 56.49399 24782 ft 450 kts 130°
2026-04-23 12:56 24.31574 56.52150 24780 ft 459 kts 130°
2026-04-23 12:57 24.29610 56.54953 24790 ft 467 kts 130°
2026-04-23 12:57 24.27616 56.57798 24681 ft 474 kts 130°
2026-04-23 12:57 24.25616 56.60654 24310 ft 469 kts 130°
2026-04-23 12:57 24.23644 56.63471 23917 ft 463 kts 130°
2026-04-23 12:58 24.21700 56.66247 23510 ft 455 kts 130°
2026-04-23 12:58 24.19781 56.68983 23010 ft 451 kts 130°
2026-04-23 12:58 24.17883 56.71688 22477 ft 446 kts 130°
2026-04-23 12:58 24.16000 56.74368 21939 ft 441 kts 130°
2026-04-23 12:59 24.14138 56.77015 21422 ft 437 kts 130°
2026-04-23 12:59 24.12296 56.79634 20917 ft 432 kts 130°
2026-04-23 12:59 24.10472 56.82224 20421 ft 428 kts 130°
2026-04-23 12:59 24.08663 56.84794 19927 ft 424 kts 130°
2026-04-23 13:00 24.06871 56.87336 19443 ft 420 kts 130°
2026-04-23 13:00 24.05095 56.89856 18958 ft 416 kts 130°
2026-04-23 13:00 24.03334 56.92353 18491 ft 412 kts 130°
2026-04-23 13:00 24.01591 56.94823 18026 ft 408 kts 130°
2026-04-23 13:01 23.99865 56.97267 17508 ft 404 kts 130°
2026-04-23 13:01 23.98155 56.99689 17004 ft 400 kts 130°
2026-04-23 13:01 23.96461 57.02086 16510 ft 397 kts 130°
2026-04-23 13:01 23.94782 57.04461 16020 ft 393 kts 129°
2026-04-23 13:02 23.93117 57.06812 15523 ft 390 kts 130°
2026-04-23 13:02 23.91461 57.09145 15037 ft 387 kts 129°
2026-04-23 13:02 23.89822 57.11455 14569 ft 383 kts 129°
2026-04-23 13:02 23.88193 57.13753 14087 ft 381 kts 129°
2026-04-23 13:03 23.86577 57.16034 13616 ft 378 kts 129°
2026-04-23 13:03 23.84970 57.18302 13077 ft 376 kts 129°
2026-04-23 13:03 23.83370 57.20559 12549 ft 375 kts 129°
2026-04-23 13:03 23.81780 57.22802 12052 ft 372 kts 129°
2026-04-23 13:04 23.80201 57.25028 11551 ft 370 kts 129°
2026-04-23 13:04 23.78633 57.27240 11060 ft 368 kts 129°
2026-04-23 13:04 23.77072 57.29441 10613 ft 365 kts 129°
2026-04-23 13:04 23.75526 57.31621 10194 ft 361 kts 129°
2026-04-23 13:05 23.73995 57.33776 9880 ft 355 kts 129°
2026-04-23 13:05 23.72551 57.35899 9780 ft 343 kts 122°
2026-04-23 13:05 23.71670 57.38225 9675 ft 332 kts 106°
2026-04-23 13:05 23.71095 57.40617 9587 ft 321 kts 104°
2026-04-23 13:06 23.70064 57.45195 9354 ft 302 kts 104°
2026-04-23 13:06 23.69562 57.47412 9033 ft 301 kts 104°
2026-04-23 13:06 23.69056 57.49621 8752 ft 299 kts 104°
2026-04-23 13:07 23.68549 57.51814 8430 ft 298 kts 104°
2026-04-23 13:07 23.68041 57.53996 8131 ft 296 kts 104°
2026-04-23 13:07 23.67536 57.56159 7895 ft 293 kts 104°
2026-04-23 13:07 23.67031 57.58311 7590 ft 292 kts 104°
2026-04-23 13:08 23.66529 57.60452 7310 ft 290 kts 104°
2026-04-23 13:08 23.66032 57.62565 7134 ft 284 kts 104°
2026-04-23 13:08 23.65539 57.64657 6813 ft 285 kts 104°
2026-04-23 13:08 23.65047 57.66747 6582 ft 284 kts 104°
2026-04-23 13:09 23.64555 57.68832 6356 ft 284 kts 104°
2026-04-23 13:09 23.64063 57.70914 6136 ft 284 kts 104°
2026-04-23 13:09 23.63572 57.72994 5906 ft 282 kts 105°
2026-04-23 13:09 23.63084 57.75060 5670 ft 280 kts 105°
2026-04-23 13:10 23.62598 57.77112 5450 ft 279 kts 105°
2026-04-23 13:10 23.62115 57.79154 5226 ft 278 kts 105°
2026-04-23 13:10 23.61633 57.81187 5000 ft 276 kts 105°
2026-04-23 13:10 23.61157 57.83198 4765 ft 272 kts 105°
2026-04-23 13:11 23.60688 57.85173 4551 ft 268 kts 105°
2026-04-23 13:11 23.60224 57.87130 4320 ft 265 kts 105°
2026-04-23 13:11 23.59764 57.89067 4071 ft 262 kts 105°
2026-04-23 13:11 23.59313 57.90969 3937 ft 256 kts 105°
2026-04-23 13:12 23.58872 57.92824 3794 ft 249 kts 105°
2026-04-23 13:12 23.58444 57.94624 3668 ft 242 kts 106°
2026-04-23 13:12 23.58027 57.96375 3539 ft 236 kts 105°
2026-04-23 13:12 23.57627 57.98056 3417 ft 230 kts 105°
2026-04-23 13:13 23.57227 57.99733 3286 ft 226 kts 105°
2026-04-23 13:13 23.57043 58.01394 3204 ft 217 kts 85°
2026-04-23 13:13 23.57215 58.02974 3175 ft 203 kts 85°
2026-04-23 13:13 23.57372 58.04468 3174 ft 197 kts 84°
2026-04-23 13:14 23.57518 58.05947 3186 ft 196 kts 85°
2026-04-23 13:14 23.57645 58.07429 3186 ft 197 kts 86°
2026-04-23 13:14 23.57764 58.08913 3125 ft 195 kts 86°
2026-04-23 13:14 23.57876 58.10343 2911 ft 184 kts 86°
2026-04-23 13:15 23.57982 58.11696 2684 ft 175 kts 86°
2026-04-23 13:15 23.58084 58.12995 2493 ft 170 kts 86°
2026-04-23 13:15 23.58185 58.14285 2284 ft 171 kts 85°
2026-04-23 13:15 23.58286 58.15572 2052 ft 168 kts 85°
2026-04-23 13:16 23.58385 58.16817 1843 ft 163 kts 85°
2026-04-23 13:16 23.58480 58.18028 1645 ft 159 kts 85°
2026-04-23 13:16 23.58576 58.19235 1456 ft 160 kts 84°
2026-04-23 13:16 23.58671 58.20444 1262 ft 161 kts 83°
2026-04-23 13:17 23.58767 58.21652 1067 ft 159 kts 83°
2026-04-23 13:17 23.58863 58.22855 863 ft 159 kts 83°
2026-04-23 13:17 23.58954 58.24044 614 ft 156 kts 82°
2026-04-23 13:17 23.59044 58.25240 432 ft 161 kts 83°
2026-04-23 13:18 23.59156 58.26460 325 ft 168 kts 83°
2026-04-23 13:18 23.59258 58.27817 818 ft 197 kts 86°
2026-04-23 13:18 23.59277 58.29480 1120 ft 236 kts 88°
2026-04-23 13:18 23.59318 58.31297 1686 ft 241 kts 89°
2026-04-23 13:19 23.59311 58.33147 2305 ft 250 kts 90°
2026-04-23 13:19 23.59354 58.35067 2544 ft 256 kts 88°
2026-04-23 13:19 23.59423 58.37010 2795 ft 266 kts 88°
2026-04-23 13:19 23.59677 58.39073 2909 ft 278 kts 71°
2026-04-23 13:20 23.60684 58.40836 3116 ft 276 kts 44°
2026-04-23 13:20 23.62314 58.41898 3306 ft 274 kts 16°
2026-04-23 13:20 23.64198 58.42023 3507 ft 275 kts 348°
2026-04-23 13:20 23.65937 58.41188 3715 ft 276 kts 321°
2026-04-23 13:21 23.67130 58.39584 3924 ft 273 kts 294°
2026-04-23 13:21 23.67541 58.37566 3971 ft 276 kts 270°
2026-04-23 13:21 23.67463 58.35480 3978 ft 276 kts 265°
2026-04-23 13:21 23.67316 58.33402 3961 ft 274 kts 265°
2026-04-23 13:22 23.67162 58.31340 3965 ft 273 kts 265°
2026-04-23 13:22 23.67005 58.29278 3968 ft 272 kts 265°
2026-04-23 13:22 23.66846 58.27226 3971 ft 272 kts 264°
2026-04-23 13:22 23.66687 58.25155 3773 ft 278 kts 264°
2026-04-23 13:23 23.66528 58.23074 3450 ft 271 kts 264°
2026-04-23 13:23 23.66379 58.21055 3148 ft 264 kts 264°
2026-04-23 13:23 23.66253 58.19079 2840 ft 259 kts 268°
2026-04-23 13:23 23.66287 58.17135 2522 ft 254 kts 271°
2026-04-23 13:24 23.66346 58.15265 2269 ft 236 kts 270°
2026-04-23 13:24 23.66383 58.13565 2173 ft 213 kts 270°
2026-04-23 13:24 23.66088 58.12111 2129 ft 185 kts 230°
2026-04-23 13:24 23.65126 58.11331 2190 ft 172 kts 202°
2026-04-23 13:25 23.63979 58.11088 2173 ft 165 kts 178°
2026-04-23 13:25 23.62873 58.11356 2208 ft 161 kts 154°
2026-04-23 13:25 23.61945 58.12036 2177 ft 159 kts 144°
2026-04-23 13:25 23.61044 58.12743 2178 ft 160 kts 144°
2026-04-23 13:26 23.60202 58.13546 2037 ft 164 kts 120°
2026-04-23 13:26 23.59988 58.14734 1934 ft 164 kts 93°
2026-04-23 13:26 23.59946 58.15977 1734 ft 163 kts 92°
2026-04-23 13:26 23.59937 58.17203 1535 ft 160 kts 88°
2026-04-23 13:27 23.60006 58.18407 1340 ft 158 kts 84°
2026-04-23 13:27 23.60098 58.19599 1155 ft 158 kts 83°
2026-04-23 13:27 23.60197 58.20808 955 ft 163 kts 83°
2026-04-23 13:27 23.60287 58.22038 744 ft 163 kts 83°
2026-04-23 13:28 23.60390 58.23256 505 ft 162 kts 83°
2026-04-23 13:28 23.60484 58.24453 308 ft 153 kts 84°
2026-04-23 13:28 23.60576 58.25594 118 ft 151 kts 84°
2026-04-23 13:28 23.60667 58.26711 35 ft 137 kts 86°
2026-04-23 13:29 23.60737 58.27585 32 ft 94 kts 85°
2026-04-23 13:29 23.60776 58.28095 32 ft 30 kts 85°
2026-04-23 13:29 23.60765 58.28318 34 ft 29 kts 104°
2026-04-23 13:29 23.60693 58.28508 34 ft 25 kts 115°
2026-04-23 13:30 23.60647 58.28617 32 ft 11 kts 115°
2026-04-23 13:30 23.60601 58.28660 34 ft 9 kts 177°
2026-04-23 13:30 23.60566 58.28703 33 ft 9 kts 92°
2026-04-23 13:30 23.60569 58.28767 33 ft 8 kts 85°
2026-04-23 13:31 23.60563 58.28823 33 ft 8 kts 124°
2026-04-23 13:31 23.60516 58.28844 33 ft 7 kts 173°
2026-04-23 13:31 23.60466 58.28849 33 ft 7 kts 175°
2026-04-23 13:31 23.60421 58.28853 33 ft 5 kts 175°
2026-04-23 13:32 23.60395 58.28829 33 ft 6 kts 266°
2026-04-23 13:32 23.60394 58.28787 33 ft 6 kts 265°
2026-04-23 13:32 23.60392 58.28762 33 ft 2 kts 264°
2026-04-23 13:32 23.60391 58.28749 33 ft 0 kts 266°